Location: Huesca
(42.1318°N, 0.4078°W)
Time: 08:17:14
(UTC+02:00)

CUTE 1.7 + AOD 2 - Pass Details

Date: 01 May 2024
Orbit: 569 x 587 km, 97.8° (Epoch: 20 May)

Event Time Altitude Azimuth Distance (km) Brightness Sun altitude
Rises 05:57:11 0° 7° (N) 2,781 ? -10.7°
Reaches altitude 10° 05:59:22 10° 2° (N) 1,879 ? -10.4°
Maximum altitude 06:03:19 52° 287° (WNW) 716 ? -9.7°
Drops below altitude 10° 06:07:14 10° 211° (SSW) 1,866 ? -9.1°
Enters shadow 06:07:34 - 210° (SSW) 2,004 ? -9.1°
